THOR AGENA B DEB, 1951

Orbit data source: Space-Track

THOR AGENA B DEB, 1951 is space debris in LEO originally from a launch on Mon, 29 Nov 1965 UTC launched from the Air Force Western Test Range (AFWTR). Debris objects in space refer to the collection of defunct objects orbiting the Earth. Examples of debris include non-operational satellites, rocket bodies, and fragments generated from explosions, collisions, or faulty payload assembly.

Loading next visibility...
Identifier
1951, 1965-098G
Orbit
LEO
Country
Flag of USUS
Related business
Manufacturer
Unknown
Mission
Spacecraft
Bus & Motor
Unknown
Mass
~1 kg wet, ~1 kg dry
Launch date (UTC)
1965-11-29 (60 years ago)
Launch vehicle
Unknown
Launch site
Air Force Western Test Range (AFWTR)
Object type
Payload
Rocket body
Debris
Shape & HBR
Unknown
Radar Cross Section
Medium (>0.1 m² and <1 m²)

Expand to show TLE details & history
Last TLE update: 22 hours ago

TLE from 22 hours ago
0 THOR AGENA B DEB
1  1951U 65098G   25312.86773300  .00009316  00000-0  17353-2 0  9991
2  1951  79.6125 180.1961 0773417  83.6908 285.1661 13.55743596777746
Epoch: 2025-11-08T20:49Z
TLE epoch observation values (Epoch: 2025-11-08T20:49:32.131Z)
Latitude
-0.00002°
Longitude
179.52104°
Altitude
946.166 km
Speed
7.432 km/s
True Right ascension
12h 00m 47s
True Declination
0° 00' 00"
Sunlit
Object was in daylight at epoch
Visualization orbit readout
Latitude
Unknown
Longitude
Unknown
Altitude
Unknown
Speed
Unknown
Apparent Right ascension
Unknown
Apparent Declination
Unknown
Sunlit
N/A
Visualization observer readout
Local Sidereal Time
15:22:35
Azimuth
Unknown
Elevation
Unknown
Doppler factor
Unknown
Orbital elements
Apogee altitude
1,622.897 km
Perigee altitude
474.118 km
Semi-major axis
7,426.644 km
Eccentricity
0.07734
Inclination
79.6125°
RAAN
180.1961°
Arg. of periapsis
83.6908°
True anomaly
276.42448°
Mean anomaly
285.1661°
Eccentric anomaly
280.81343°
Mean motion
3.39121 °/min
Orbital period
106.16 mins
BSTAR
0.0017353
Loading maneuver chart data...
Computing Atmospheric mass density...
Loading historical data...
Loading historical data...
Loading historical data...
Loading historical data...
Loading historical data...
Loading historical data...
Loading historical data...

Documentation

Showing up to 5 results
|